weather.gov     
National Weather Service

Regional Weather Roundup
NWS Homepage
This page is being discontinued on March 12, 2014.
The same data is available at this site. Please update your bookmarks.
Thank you, and we apologize for the inconvenience.
Please send an email to SR-SRH.Webmaster@noaa.gov with any concerns.


Current Version
Previous Version:    01  02  03  04  05  06  07  08  09  10  11  12  13  14  15  16  17  18  19  20  21  22  23  24  25  26  
[Printable]
472
ASUS42 KTBW 230110
RWRFL
FLORIDA REGIONAL WEATHER ROUNDUP
NATIONAL WEATHER SERVICE TAMPA BAY RUSKIN FL
900 PM EDT WED OCT 22 2014

NOTE: "FAIR" INDICATES FEW OR NO CLOUDS BELOW 12,000 FEET WITH NO
SIGNIFICANT WEATHER AND/OR OBSTRUCTIONS TO VISIBILITY.


FLZ001>010-012>015-112-114-115-230200-
PANHANDLE FLORIDA

CITY           SKY/WX    TMP DP  RH WIND       PRES   REMARKS
PENSACOLA      CLEAR     66  48  52 N8        30.04R
PENSACOLA NAS  CLEAR     65  48  54 N7        30.05R
MILTON NAS     CLEAR     61  44  53 N3        30.06R
CRESTVIEW      CLEAR     60  46  59 N5        30.06R
DUKE FIELD     CLEAR     60  46  59 N5        30.04R
VALPARAISO     CLEAR     63  46  54 N6        30.05R
MARY ESTHER    CLEAR     61  46  58 N5        30.04R
PANAMA CITY    FAIR      58  50  75 CALM      30.03R
TYNDALL AFB    CLEAR     65  53  67 NE2       30.03R
APALACHICOLA   CLEAR     66  53  63 N6        30.02R

STATION/POSITION SKY/WX   TEMP    WIND        PRES    WAVE   SWELL
                          AIR SEA DIR/SP/G            HT/PER HT/PER
                          (F)     (DEG/KT/KT) (MB)    (FT/S) (FT/S)
30.1N   87.6W              75 78   20/ 17/ 19 1016.6R   2/ 4
29.2N   88.2W              74 79   40/ 14/ 17 1017.4R   3/ 5
28.8N   86.0W              75 80   30/ 14/ 16 1015.9R   3/ 5
PANAMA CITY BEAC           65 78  360/  5/  6 1016.9R
CAPE SAN BLAS    NOT AVBL
TOWER C                    74      20/ 15/ 16 1016.1R
28.5N   84.5W              75 81   40/ 14/ 16 1015.5R   3/ 5

$$
FLZ011-016>038-118-127-128-134-139-239-230200-
NORTH FLORIDA

CITY           SKY/WX    TMP DP  RH WIND       PRES   REMARKS
TALLAHASSEE    CLEAR     67  45  45 NE6       30.03R
PERRY          CLEAR     63  50  63 NE3       30.03R
CROSS CITY       N/A     59  52  77 NE3       30.01R
LAKE CITY      FAIR      61  50  67 NE5       30.03R
GAINESVILLE    CLEAR     61  54  77 E6        30.03R
MAYPORT NAS    CLEAR     68  52  56 N10       30.03S
JACKSONVILLE   CLEAR     57  54  89 N6        30.03S
JAX NAS        CLEAR     70  54  56 NE8       30.04R
JAX CRAIG      CLEAR     63  53  70 NE5       30.03S
JAX CECIL      CLEAR     55  54  94 CALM      30.04R
FERNANDINA BEA FAIR      68  52  56 N5        30.02S
ST AUGUSTINE   CLEAR     68  54  60 N8        30.04R

STATION/POSITION SKY/WX   TEMP    WIND        PRES    WAVE   SWELL
                          AIR SEA DIR/SP/G            HT/PER HT/PER
                          (F)     (DEG/KT/KT) (MB)    (FT/S) (FT/S)
SHELL POINT                70      20/  4/  5   N/A
KEATON BEACH               63      40/  2/  3 1016.8R
CEDAR KEY                  68      20/  5/  7 1016.4R
FERNANDINA                 67 76   20/  5/  8 1016.5R
30.7N   81.3W                 77                N/A     4/ 6
MAYPORT                    68 77   10/  5/  8   N/A
31.4N   80.9W              69 76  360/ 12/ 16 1017.0R   3/ 6   2/ 6
ST AUGUSTINE               69      20/ 15/ 18 1017.5R

$$
FLZ040-043>046-052-053-057-058-063-144-230200-
INTERIOR CENTRAL FLORIDA

CITY           SKY/WX    TMP DP  RH WIND       PRES   REMARKS
OCALA          PTCLDY    66  55  68 NE6       30.02R
THE VILLAGES     N/A     68  59  73 NE7       29.92R
LEESBURG       PTCLDY    69  58  67 NE13      30.02R
SANFORD        PTCLDY    68  60  75 N7        30.01R
ORLANDO EXEC   PTCLDY    72  61  68 NE9       30.00R
ORLANDO INTL   PTCLDY    71  61  70 NE13      30.00R
KISSIMMEE      CLEAR     73  63  68 NE8       29.99R
WINTER HAVEN   MOCLDY    73  63  70 E10       29.99R
LAKELAND       CLEAR     72  61  68 NE7       29.98R
BARTOW         FAIR      72  63  73 E9        29.99R
OKEECHOBEE     CLOUDY    72  66  83 MISG        N/A

$$
FLZ041-047-054-059-064-141-147-230200-
EAST CENTRAL FLORIDA

CITY           SKY/WX    TMP DP  RH WIND       PRES   REMARKS
DAYTONA BEACH  PTCLDY    70  57  63 NE14      30.02R
DELAND         PTCLDY    64  57  77 NE5       30.03R
NEW SMYRNA BEA CLEAR     70  59  68 N12       30.01
JFK SPACE CTR  MOCLDY    70  61  71 NE10G17   29.99R
TITUSVILLE     CLEAR     72  63  73 N15       29.99
CAPE CANAVERAL MOCLDY    72  62  71 N10G18    29.98R
PATRICK AFB    MOCLDY    74  65  72 N12       29.98R
MELBOURNE      CLOUDY    75  64  68 N10       29.98R
VERO BEACH     CLOUDY    74  64  71 NE9       29.97R
FT PIERCE      CLOUDY    75  65  70 NE5       29.96R
STUART         CLOUDY    77  66  69 NE7       29.97R

STATION/POSITION SKY/WX   TEMP    WIND        PRES    WAVE   SWELL
                          AIR SEA DIR/SP/G            HT/PER HT/PER
                          (F)     (DEG/KT/KT) (MB)    (FT/S) (FT/S)
28.5N   80.2W              76 82   10/ 14/ 17 1014.8R
28.9N   78.5W              76 81  350/ 14/ 17 1014.8R   4/ 5   2/10
TRIDENT PIER               71 80   10/  6/ 10 1014.9R
28.4N   80.5W                 80                N/A     2/ 4
27.6N   80.2W                 80                N/A     2/13   2/13

$$
FLZ050-056-061-142-242-148-248-149-249-151-251-155-255-
160-260-230200-
WEST CENTRAL FLORIDA

CITY           SKY/WX    TMP DP  RH WIND       PRES   REMARKS
CRYSTAL RIVER  FAIR      66  55  68 NE3       29.99R
INVERNESS      FAIR      66  57  72 NE5       30.01R
BROOKSVILLE    PTCLDY    69  57  65 N8        29.99R
ZEPHYRHILLS    FAIR      64  59  82 N6        29.99R
CLEARWATER     PTCLDY    75  63  66 N9        29.97R
TAMPA INTL     MOCLDY    73  61  65 N8        29.97R
TAMPA EXEC     PTCLDY    68  63  83 CALM      29.98R
PLANT CITY     PTCLDY    73  59  60 NE5       29.99R
MACDILL AFB    PTCLDY    72  64  75 N5        29.97R
ST PETERSBURG  PTCLDY    76  64  66 N9        29.95R
SARASOTA       CLOUDY    76  66  71 N7        29.94R
VENICE           N/A     77  66  69 MISG      29.96R

STATION/POSITION SKY/WX   TEMP    WIND        PRES    WAVE   SWELL
                          AIR SEA DIR/SP/G            HT/PER HT/PER
                          (F)     (DEG/KT/KT) (MB)    (FT/S) (FT/S)
CEDAR KEY                  68      20/  5/  7 1016.4R
28.5N   84.5W              75 81   40/ 14/ 16 1015.5R   3/ 5
27.3N   84.3W                 82                N/A     3/ 5
CLEARWATER BEACH NOT AVBL
MIDDLE TAMPA BAY           77      20/ 14/ 16 1014.7R
VENICE                     79 81   10/  5/  6 1013.8R

$$
FLZ066-069-070-075>078-162-262-165-265-230200-
SOUTHWEST FLORIDA AND KEYS

CITY           SKY/WX    TMP DP  RH WIND       PRES   REMARKS
PUNTA GORDA    CLOUDY    76  69  79 NE5       29.96R
FT MYERS       CLOUDY    78  71  79 SE3       29.93R
SOUTHWEST INTL CLOUDY    78  70  76 E6        29.94R
NAPLES         CLOUDY    78  71  79 CALM      29.94R
MARATHON       LGT RAIN  74  32  21 E6        29.93F
KEY WEST NAS   LGT RAIN  73  72  96 E9        29.92F
KEY WEST INTL  LGT RAIN  74  74 100 NE8       29.92F

STATION/POSITION SKY/WX   TEMP    WIND        PRES    WAVE   SWELL
                          AIR SEA DIR/SP/G            HT/PER HT/PER
                          (F)     (DEG/KT/KT) (MB)    (FT/S) (FT/S)
VENICE                     79 81   10/  5/  6 1013.8R
NAPLES                     77 83  150/  2/  4 1014.3R
26.0N   85.6W              80 82   50/ 17/ 21 1013.0R   5/ 6
DRY TORTUGAS               76      70/ 15/ 16 1012.7R
NW FL BAY                  77      80/  7/  8 1013.9R
SAND KEY                   75      60/ 19/ 22 1012.8F
SOMBRERO KEY               75      80/ 13/ 14 1014.0F
LONG KEY                   76 79  100/  8/  9 1014.5F
MOLASSES REEF              76 83  110/  4/  5 1014.0F

$$
FLZ067-068-071>074-168-172>174-230200-
SOUTHEAST FLORIDA

CITY           SKY/WX    TMP DP  RH WIND       PRES   REMARKS
W PALM BEACH   CLOUDY    79  71  76 N3        29.94R
FT LAUDER-EXEC CLOUDY    78  72  81 CALM      29.95R
FT LAUDERDALE  CLOUDY    79  75  87 SW3       29.94R
POMPANO BEACH  CLOUDY    80  73  79 CALM      29.95R
PEMBROKE PINES LGT RAIN  75  73  93 SW5       29.96R
OPA LOCKA      LGT RAIN  75  72  90 SW3       29.96R
MIAMI          LGT RAIN  75  73  93 CALM      29.96R
WEST KENDALL   LGT RAIN  75  72  90 CALM      29.96R
HOMESTEAD      CLOUDY    74  72  95 NW1       29.95S

STATION/POSITION SKY/WX   TEMP    WIND        PRES    WAVE   SWELL
                          AIR SEA DIR/SP/G            HT/PER HT/PER
                          (F)     (DEG/KT/KT) (MB)    (FT/S) (FT/S)
PORT EVERGLADES            77     230/  2/  3 1014.1
VIRGINIA KEY               77 81  310/  2/  2 1014.7R
LAKE WORTH                 80 83   30/  6/  9 1013.9R
FOWEY ROCKS                78 81  110/  5/  5 1014.5R
SETTLEMENT POINT           80      20/  5/  6 1014.8R

$$





U.S. Dept. of Commerce
NOAA National Weather Service
1325 East West Highway
Silver Spring, MD 20910
E-mail: w-nws.webmaster@noaa.gov
Page last modified: May 16, 2007
NATIONAL WEATHER SERVICE: for Safety, for Work, for Fun - FOR LIFE